[[{"header":{"parameterUnit":"m.s-1","parameterCategory":1,"la1":30.2991,"la2":30.254,"lo1":-89.0895,"lo2":-89.0444,"dy":0.0017,"dx":0.0017,"nx":28,"ny":28,"refTime":"2025-11-12T09:00:00:Z","depth":0,"parameterNumber":2,"parameterNumberName":"U-component_of_WINDS"},"data":[0,0,0,0,0,0,0,0,0,0,0,0,0,0,0,0,0,0,0,0,0,0,0,0,0,0,0,0,0,0,0,0,0,0,0,0,0,0,0,0,0,0,0,0,0,0,0,0,0,0,0,0,0,0,0,0,0,0,1.0631,1.0631,0,1.0643,1.0643,1.0644,1.0553,1.055,1.0548,1.0545,1.0559,1.0561,1.0564,0,0,0,0,0,0,0,0,0,0,0,0,0,1.0531,1.0533,1.0631,1.0631,1.0632,1.0643,1.0643,1.0644,1.0553,1.055,1.0547,1.0544,1.0558,1.0561,1.0564,0,0,0,0,0,0,0,0,0,0,0,0,0,1.0562,1.0534,1.0631,1.0588,1.0584,1.0643,1.0643,1.0644,1.0554,1.055,1.0546,1.0543,1.0557,1.0561,1.0565,1.0667,0,0,1.0577,1.0579,0,0,0,0,0,0,0,0,1.056,1.0566,1.0594,1.0591,1.0587,1.0593,1.0613,1.0651,1.0555,1.0565,1.0545,1.0541,1.0573,1.0576,1.0586,1.0667,1.0668,1.0578,1.058,1.0582,1.0583,0,0,0,0,0,0,0,1.0558,1.0564,1.0636,1.0595,1.059,1.0568,1.0568,1.062,1.0591,1.0564,1.0558,1.056,1.057,1.0583,1.0586,1.0668,1.0578,1.0581,1.0584,1.0585,1.0833,1.0836,0,0,0,0,0,0,1.0562,1.0563,1.0636,1.0636,1.0564,1.0573,1.0573,1.0595,1.059,1.0585,1.0563,1.0556,1.0577,1.0581,1.0586,1.0705,1.0582,1.0586,1.0588,1.0828,1.0833,1.0838,0,0,0,0,0,0,1.056,1.0569,1.0635,1.0598,1.0605,1.0579,1.0604,1.0597,1.0609,1.0589,1.0584,1.0581,1.0575,1.058,1.0647,1.0704,1.0588,1.0591,1.0824,1.083,1.0836,1.0943,0,0,0,0,0,0,1.0557,1.0569,1.0607,1.06,1.0607,1.0696,1.0607,1.06,1.0616,1.0606,1.0604,1.06,1.0572,1.0641,1.0651,1.0707,1.0595,1.0818,1.0826,1.0834,1.0934,1.0952,1.0967,0,0,0,0,0,1.0554,1.0637,1.0609,1.0619,1.0654,1.0699,1.0704,1.0669,1.0621,1.0659,1.0647,1.06,1.0696,1.0649,1.0659,1.0718,1.0815,1.0824,1.0833,1.0927,1.0949,1.0967,0,0,0,0,0,0,1.0652,1.0635,1.0604,1.0688,1.0696,1.0684,1.0731,1.0693,1.0715,1.0705,1.0662,1.0662,1.0736,1.0733,1.0681,1.0816,1.0747,1.0759,1.0815,1.0835,1.0852,1.0851,1.0598,0,0,0,0,0,1.0684,1.0721,1.0705,1.078,1.0785,1.0758,1.0776,1.0749,1.0755,1.0759,1.0751,1.0759,1.0791,1.0813,1.0841,1.0933,1.0932,1.0979,1.0995,1.1009,1.102,1.1068,1.1089,1.0868,1.0868,1.0868,0,0,1.0749,1.0744,1.0771,1.0799,1.0802,1.0843,1.0761,1.0807,1.0837,1.0766,1.0828,1.0823,1.0829,1.0909,1.0944,1.0909,1.108,1.1021,1.1032,1.1035,1.108,1.1101,1.1119,1.0875,1.0873,1.0872,0,0,1.0888,1.0889,1.0951,1.0955,1.0961,1.0942,1.0957,1.0951,1.0945,1.1007,1.0954,1.0989,1.1045,1.1051,1.1062,1.1204,1.1163,1.1215,1.1301,1.1349,1.1366,1.1381,1.1432,1.1451,1.1225,1.1226,1.1226,0,1.0969,1.1027,1.0988,1.1037,1.1052,1.0988,1.1051,1.1058,1.1073,1.1084,1.1044,1.1113,1.1113,1.1194,1.1228,1.1239,1.1255,1.1215,1.1367,1.1382,1.1395,1.1443,1.1462,1.1232,1.1231,1.1231,1.123,0,1.1125,1.1167,1.1216,1.1232,1.1251,1.1308,1.1277,1.1302,1.1273,1.1259,1.1323,1.132,1.1347,1.1364,1.1336,1.1441,1.1419,1.1374,1.1304,1.1423,1.1467,1.1485,1.1241,1.1239,1.1237,1.1235,0,0,1.1327,1.132,1.1339,1.1345,1.1346,1.1378,1.1431,1.1457,1.1479,1.1491,1.1535,1.1583,1.1542,1.1554,1.1527,1.1569,1.1681,1.1518,1.1518,1.1548,1.1796,1.183,1.1852,1.1654,1.1657,1.1659,1.1796,0,1.1463,1.1553,1.1519,1.1612,1.165,1.1591,1.1637,1.1643,1.1631,1.1662,1.1648,1.1683,1.1626,1.1633,1.1672,1.1659,1.173,1.1649,1.1694,1.1696,1.1694,1.1875,1.1911,1.2039,1.1813,1.1815,1.1818,0,1.1633,1.1652,1.1749,1.1743,1.1758,1.18,1.1821,1.1851,1.1856,1.1845,1.1859,1.1822,1.1874,1.1805,1.1876,1.1821,1.1838,1.1834,1.1839,1.1841,1.1764,1.1882,1.2079,1.2099,1.1844,1.1842,1.184,0,1.177,1.182,1.1884,1.1891,1.1886,1.1918,1.1917,1.1919,1.1937,1.1955,1.1966,1.199,1.2004,1.2024,1.1995,1.1947,1.207,1.1998,1.2062,1.2063,1.2091,1.2089,1.2293,1.2102,1.2102,1.2101,1.2101,0,1.1925,1.1987,1.1945,1.1985,1.2052,1.2013,1.208,1.2073,1.2076,1.2113,1.2063,1.2099,1.2059,1.2091,1.2069,1.2131,1.2138,1.213,1.2123,1.2134,1.2135,1.2144,1.2134,1.2106,1.2105,1.2104,1.2104,0,1.2089,1.2064,1.213,1.2121,1.212,1.2169,1.2161,1.2197,1.2182,1.2229,1.2238,1.2214,1.225,1.2223,1.2258,1.2243,1.2325,1.2306,1.2323,1.2318,1.2383,1.2377,1.2599,1.2626,1.2419,1.2421,1.2423,0,1.219,1.2236,1.2231,1.2252,1.2255,1.2289,1.2307,1.2271,1.2291,1.2301,1.2336,1.2367,1.239,1.245,1.2435,1.2462,1.2443,1.2519,1.2447,1.2456,1.2444,1.2441,1.2445,1.2534,1.2536,1.2538,1.254,0,1.237,1.2356,1.2383,1.2406,1.2428,1.2445,1.2457,1.2477,1.244,1.2466,1.2501,1.2519,1.2555,1.2587,1.2608,1.2608,1.2568,1.2563,1.2579,1.259,1.2598,1.2594,1.2363,1.2558,1.2556,1.2555,1.2554,1.2553,1.2505,1.2543,1.2546,1.2577,1.2583,1.2596,1.2629,1.2618,1.2647,1.2673,1.265,1.2692,1.2697,1.2722,1.2726,1.2759,1.2728,1.2751,1.2757,1.2763,1.2772,1.2593,1.2763,1.2763,1.2762,1.2762,1.2761,0,1.2683,1.2682,1.2711,1.273,1.2755,1.2716,1.2727,1.2751,1.2789,1.2797,1.282,1.2861,1.2891,1.288,1.2907,1.2935,1.2918,1.2944,1.2941,1.2941,1.2799,1.2782,1.2957,1.2957,1.2957,1.2957,1.2957,1.2957,1.2778,1.284,1.2826,1.289,1.2888,1.2929,1.2939,1.2951,1.2957,1.3004,1.3029,1.3021,1.3021,1.3048,1.3074,1.307,1.3082,1.3114,1.3104,1.2971,1.2951,1.2933,1.2917,1.3117,1.3117,1.3243,1.3244,1.3245]},{"header":{"parameterUnit":"m.s-1","parameterCategory":1,"la1":30.2991,"la2":30.254,"lo1":-89.0895,"lo2":-89.0444,"dy":0.0017,"dx":0.0017,"nx":28,"ny":28,"refTime":"2025-11-12T09:00:00:Z","depth":0,"parameterNumber":3,"parameterNumberName":"V-component_of_WINDS"},"data":[0,0,0,0,0,0,0,0,0,0,0,0,0,0,0,0,0,0,0,0,0,0,0,0,0,0,0,0,0,0,0,0,0,0,0,0,0,0,0,0,0,0,0,0,0,0,0,0,0,0,0,0,0,0,0,0,0,0,-0.1927,-0.1927,0,-0.1972,-0.1972,-0.1973,-0.2024,-0.2024,-0.2025,-0.2026,-0.2072,-0.2072,-0.2073,0,0,0,0,0,0,0,0,0,0,0,0,0,-0.1884,-0.1885,-0.1926,-0.1927,-0.1928,-0.1972,-0.1972,-0.1973,-0.2023,-0.2024,-0.2025,-0.2026,-0.2072,-0.2072,-0.2073,0,0,0,0,0,0,0,0,0,0,0,0,0,-0.1913,-0.1885,-0.1926,-0.1958,-0.1961,-0.1972,-0.1972,-0.1973,-0.2023,-0.2024,-0.2026,-0.2027,-0.2072,-0.2072,-0.2073,-0.2056,0,0,-0.2076,-0.2076,0,0,0,0,0,0,0,0,-0.1911,-0.1915,-0.1953,-0.1956,-0.196,-0.1993,-0.1975,-0.2001,-0.2023,-0.2,-0.2026,-0.2027,-0.2045,-0.2048,-0.2054,-0.2058,-0.206,-0.2076,-0.2076,-0.2076,-0.2077,0,0,0,0,0,0,0,-0.1909,-0.1913,-0.1944,-0.1953,-0.1957,-0.197,-0.1976,-0.198,-0.2015,-0.2002,-0.2006,-0.201,-0.2047,-0.2053,-0.2055,-0.2061,-0.2076,-0.2076,-0.2077,-0.2077,-0.2054,-0.2052,0,0,0,0,0,0,-0.1903,-0.1911,-0.1943,-0.1946,-0.1938,-0.197,-0.1976,-0.1981,-0.2016,-0.2022,-0.2009,-0.2013,-0.2051,-0.2054,-0.2057,-0.2039,-0.2076,-0.2077,-0.2078,-0.2055,-0.2053,-0.2052,0,0,0,0,0,0,-0.1901,-0.1905,-0.1941,-0.193,-0.1935,-0.197,-0.1975,-0.1982,-0.1988,-0.2021,-0.2028,-0.2009,-0.2052,-0.2056,-0.2056,-0.2042,-0.2078,-0.2078,-0.2056,-0.2054,-0.2053,-0.2003,0,0,0,0,0,0,-0.19,-0.1904,-0.1898,-0.1929,-0.1936,-0.1939,-0.1974,-0.1982,-0.1989,-0.1994,-0.2023,-0.2029,-0.2053,-0.2054,-0.2057,-0.2043,-0.2079,-0.2057,-0.2055,-0.2053,-0.2006,-0.2,-0.1994,0,0,0,0,0,-0.1898,-0.1882,-0.1897,-0.1901,-0.1928,-0.1938,-0.1941,-0.197,-0.1988,-0.1982,-0.2003,-0.2028,-0.2043,-0.2054,-0.2057,-0.2044,-0.2058,-0.2056,-0.2053,-0.2009,-0.2001,-0.1995,0,0,0,0,0,0,-0.1847,-0.1886,-0.1904,-0.1897,-0.1914,-0.1946,-0.1939,-0.1961,-0.1974,-0.1977,-0.2013,-0.2019,-0.2015,-0.2029,-0.2041,-0.2029,-0.2054,-0.2052,-0.2019,-0.2012,-0.2007,-0.2003,-0.208,0,0,0,0,0,-0.1835,-0.184,-0.1874,-0.1864,-0.1872,-0.1904,-0.1909,-0.193,-0.1949,-0.1956,-0.1978,-0.1995,-0.2005,-0.2009,-0.202,-0.2009,-0.2016,-0.2001,-0.1996,-0.1991,-0.1988,-0.1984,-0.1978,-0.2044,-0.2044,-0.2044,0,0,-0.181,-0.1832,-0.1832,-0.1854,-0.187,-0.1874,-0.191,-0.1912,-0.1916,-0.1957,-0.1958,-0.1975,-0.1997,-0.1991,-0.199,-0.2003,-0.1972,-0.1988,-0.1983,-0.1984,-0.1981,-0.1975,-0.1969,-0.2042,-0.2042,-0.2043,0,0,-0.1766,-0.1783,-0.1777,-0.1793,-0.1816,-0.1838,-0.1836,-0.1866,-0.1879,-0.1881,-0.1912,-0.1917,-0.1932,-0.1946,-0.1955,-0.1919,-0.1941,-0.1921,-0.189,-0.1886,-0.1881,-0.1876,-0.1863,-0.1858,-0.1919,-0.1919,-0.1918,0,-0.1732,-0.1739,-0.1771,-0.1772,-0.1781,-0.182,-0.1814,-0.1827,-0.1853,-0.1858,-0.1873,-0.1893,-0.191,-0.1909,-0.19,-0.1906,-0.1906,-0.1917,-0.1879,-0.1875,-0.1871,-0.1859,-0.1854,-0.1916,-0.1916,-0.1916,-0.1917,0,-0.1696,-0.17,-0.1693,-0.1717,-0.1725,-0.1722,-0.1755,-0.1759,-0.178,-0.1801,-0.1803,-0.1825,-0.1841,-0.1842,-0.1862,-0.1844,-0.1852,-0.1872,-0.1898,-0.1862,-0.1851,-0.1846,-0.1912,-0.1913,-0.1914,-0.1914,0,0,-0.1619,-0.1662,-0.1658,-0.167,-0.17,-0.1704,-0.1704,-0.1719,-0.1722,-0.1739,-0.174,-0.1752,-0.1772,-0.1782,-0.1805,-0.1801,-0.1771,-0.1823,-0.1824,-0.1811,-0.1752,-0.1735,-0.1729,-0.1787,-0.1786,-0.1785,-0.175,0,-0.1579,-0.1581,-0.1611,-0.1604,-0.1609,-0.1647,-0.1647,-0.1665,-0.1685,-0.1692,-0.1714,-0.1722,-0.1747,-0.1754,-0.1752,-0.1775,-0.1759,-0.1778,-0.1787,-0.1787,-0.1779,-0.1724,-0.1706,-0.1671,-0.1746,-0.1745,-0.1745,0,-0.1533,-0.1548,-0.1541,-0.1572,-0.1575,-0.1575,-0.1592,-0.1598,-0.162,-0.1635,-0.1647,-0.1673,-0.1676,-0.1701,-0.1705,-0.1717,-0.1723,-0.1735,-0.1735,-0.1736,-0.1763,-0.1722,-0.1661,-0.1655,-0.1738,-0.1739,-0.1739,0,-0.1477,-0.1495,-0.1494,-0.1503,-0.1539,-0.1537,-0.1552,-0.1575,-0.1583,-0.1599,-0.1604,-0.1619,-0.1627,-0.1639,-0.1668,-0.1684,-0.1669,-0.1697,-0.1681,-0.168,-0.1675,-0.1674,-0.1612,-0.168,-0.168,-0.168,-0.1681,0,-0.1429,-0.1424,-0.1469,-0.1468,-0.1464,-0.1499,-0.1494,-0.1512,-0.1533,-0.1536,-0.157,-0.1573,-0.1612,-0.162,-0.1643,-0.1643,-0.1647,-0.1658,-0.1664,-0.1655,-0.1653,-0.1658,-0.1661,-0.1679,-0.1679,-0.168,-0.168,0,-0.1365,-0.1395,-0.1396,-0.1431,-0.1439,-0.1434,-0.1464,-0.1465,-0.1487,-0.1491,-0.1494,-0.1529,-0.154,-0.1571,-0.1589,-0.1605,-0.1598,-0.161,-0.159,-0.1594,-0.1576,-0.1577,-0.1514,-0.1508,-0.158,-0.158,-0.1579,0,-0.1331,-0.1328,-0.1363,-0.1368,-0.1381,-0.1389,-0.1397,-0.1433,-0.144,-0.1466,-0.1463,-0.1477,-0.1489,-0.1504,-0.1532,-0.1546,-0.1558,-0.1535,-0.156,-0.1551,-0.1557,-0.1557,-0.1556,-0.1529,-0.1528,-0.1528,-0.1527,0,-0.1269,-0.1285,-0.1296,-0.1312,-0.1321,-0.1336,-0.1352,-0.1354,-0.1394,-0.14,-0.1412,-0.1422,-0.1441,-0.1454,-0.1473,-0.1489,-0.1514,-0.1519,-0.1516,-0.1505,-0.1494,-0.1499,-0.1574,-0.152,-0.1521,-0.1521,-0.1522,-0.1522,-0.1219,-0.1218,-0.1242,-0.1254,-0.127,-0.1285,-0.1288,-0.1311,-0.1321,-0.1339,-0.136,-0.1369,-0.1393,-0.1421,-0.1435,-0.1443,-0.1457,-0.1452,-0.1451,-0.1449,-0.1444,-0.1494,-0.1447,-0.1447,-0.1447,-0.1447,-0.1448,0,-0.1158,-0.1176,-0.1186,-0.1208,-0.1217,-0.1242,-0.1261,-0.1267,-0.1275,-0.1295,-0.1307,-0.132,-0.1333,-0.1362,-0.1378,-0.1379,-0.1391,-0.1382,-0.1381,-0.1385,-0.1432,-0.1432,-0.1372,-0.1372,-0.1372,-0.1372,-0.1372,-0.1372,-0.1127,-0.1127,-0.1146,-0.1154,-0.1173,-0.1182,-0.1191,-0.1206,-0.1222,-0.1235,-0.1246,-0.1266,-0.1289,-0.1307,-0.1321,-0.1329,-0.1333,-0.132,-0.1331,-0.1374,-0.1381,-0.1388,-0.1389,-0.132,-0.132,-0.1284,-0.1284,-0.1283]}]]